Powrót do katalogu

STARLINK-34943

AktywnyŁącznośćVLEO
NORAD 65366·PAYLOAD·🇺🇸 United States

Wystrzelony Aug 28, 2025 z Cape Canaveral Space Force Station

Loading…

Następne Przeloty (najbliższe 24 godziny)

TLE

ŚwieżeSource: CelesTrak SupGP

Epoka: Sep 14, 2026, 23:04 UTC

1 65366C 25190R   26257.96159722 -.00012873  00000+0 -38032-3 0  2574
2 65366  53.1591   5.7725 0001138  80.9828 131.1112 15.34399192    13

Śledź STARLINK-34943 w czasie rzeczywistym z AllMySat

Download on the App Store